Regional Weather Roundup
Issued by NWS

Home | Current Version | Previous Version | Text Only | Print | Product List | Glossary On
Versions: 1 2 3 4 5 6 7 8 9 10 11 12 13 14 15 16 17 18 19 20 21 22 23 24 25 26 27 28 29 30 31 32 33 34 35 36 37 38 39 40 41 42 43 44 45 46 47 48 49 50
000
ASUS43 KBIS 271110
RWRND
NORTH DAKOTA REGIONAL WEATHER ROUNDUP
NATIONAL WEATHER SERVICE EASTERN NORTH DAKOTA/GRAND FORKS ND
600 AM CDT TUE JUN 27 2017

  NOTE: "FAIR" INDICATES FEW OR NO CLOUDS BELOW 12,000 FEET WITH NO
  SIGNIFICANT WEATHER AND/OR OBSTRUCTIONS TO VISIBILITY.

NDZ001>003-009>011-017-271200-
...NORTHWEST NORTH DAKOTA...

CITY           SKY/WX    TMP DP  RH WIND       PRES   REMARKS
WILLISTON      FAIR      67  42  40 S10       29.70F
MINOT          FAIR      63  37  38 S21G31    29.78F
MINOT AFB      FAIR      61  38  41 S15G24    29.77F
$$

NDZ018>021-031>035-040>046-271200-
...SOUTHWEST NORTH DAKOTA...

CITY           SKY/WX    TMP DP  RH WIND       PRES   REMARKS
BISMARCK       FAIR      57  40  52 SE13      29.86F
DICKINSON      FAIR      57  35  43 S20       29.76S
GARRISON         N/A     60  39  45 S17G25    29.81F
HETTINGER      FAIR      57  39  51 SE15      29.80F
$$

NDZ004>008-012>016-024-026-027-054-271200-
...NORTHEAST NORTH DAKOTA...

CITY           SKY/WX    TMP DP  RH WIND       PRES   REMARKS
GRAND FORKS    CLOUDY    51  45  79 S7        29.94S
GRAND FORKS AF FAIR      53  43  69 S7        29.93F
DEVILS LAKE    FAIR      58  42  55 S18G24    29.90F
$$

NDZ022-023-025-028>030-036>039-047>053-271200-
...SOUTHEAST NORTH DAKOTA...

CITY           SKY/WX    TMP DP  RH WIND       PRES   REMARKS
JAMESTOWN      FAIR      53  39  59 S10       29.95F
FARGO          FAIR      52  42  69 S9        29.99S
WAHPETON       FAIR      46  39  76 S7        30.03R
$$




USA.gov is the U.S. government's official web portal to all federal, state and local government web resources and services.